FW8164 Weather Reports


time (UTC)temp
F
wind
direction
speed
knots
gust
knots
rain 1hr
in
rain 24hr
in
rain mn
in
humidity
%
barometer
mb
20260503181554 71 71 0.9 4.3 0.00 0.00 0.00 67 1011.5
20260503180046 70 342 0.9 4.3 0.00 0.00 0.00 68 1011.5
20260503174548 69 0 0.9 5.2 0.00 0.00 0.00 69 1011.5
20260503173056 69 0 0.0 3.5 0.00 0.00 0.00 71 1011.8
20260503171546 68 307 0.9 3.5 0.00 0.00 0.00 71 1011.9
20260503081611 54 0 0.0 0.0 0.00 0.01 0.00 95 1012.7
20260503071544 56 0 0.0 0.9 0.00 0.01 0.00 94 1013.0
20260503054551 57 0 0.0 0.9 0.00 0.01 0.01 91 1012.9
20260503053045 58 0 0.0 0.0 0.00 0.01 0.01 89 1013.0
20260503051544 58 0 0.0 0.0 0.00 0.01 0.01 88 1013.1
20260503050050 59 124 0.0 0.9 0.00 0.01 0.01 88 1013.0
20260503044550 59 0 0.0 1.7 0.00 0.01 0.01 86 1012.9
20260503043044 60 295 0.0 0.9 0.00 0.01 0.01 85 1012.6
20260503041548 61 0 0.0 0.9 0.00 0.01 0.01 83 1012.6
20260503040049 61 134 0.0 0.9 0.00 0.01 0.01 83 1012.5
20260503034550 62 339 0.0 2.6 0.00 0.01 0.01 83 1012.1
20260503033100 62 0 0.0 2.6 0.00 0.01 0.01 82 1012.1
20260503031556 62 22 0.0 0.9 0.00 0.01 0.01 80 1012.0
20260503030045 63 347 0.0 1.7 0.00 0.01 0.01 79 1011.9
20260503024607 63 0 0.0 7.0 0.00 0.01 0.01 78 1011.9
20260503023042 64 317 1.7 4.3 0.00 0.01 0.01 77 1011.8
20260503021544 65 0 0.0 0.0 0.00 0.01 0.01 75 1012.3
20260503020047 65 0 0.0 2.6 0.00 0.01 0.01 74 1012.8
20260503014544 66 119 6.1 10.4 0.00 0.01 0.01 72 1013.5
20260503013045 67 135 2.6 7.0 0.00 0.01 0.01 70 1013.2
20260503011546 68 131 0.9 3.5 0.00 0.01 0.01 67 1012.8
20260503010042 68 122 0.9 3.5 0.00 0.01 0.01 67 1012.7
20260503004545 68 136 0.9 4.3 0.00 0.01 0.01 68 1012.6
20260503003050 68 200 0.9 4.3 0.00 0.01 0.01 67 1012.8
20260503001603 67 0 0.0 0.9 0.00 0.01 0.01 68 1012.5
20260503000108 67 349 0.9 2.6 0.00 0.01 0.01 69 1012.2
20260502234543 66 311 0.9 3.5 0.00 0.01 0.01 69 1012.4
20260502233101 66 173 0.9 2.6 0.00 0.01 0.01 70 1012.7
20260502231602 64 212 1.7 3.5 0.00 0.01 0.01 72 1012.9
20260502230044 65 230 0.0 3.5 0.00 0.01 0.01 71 1013.1
20260502224549 65 11 0.0 1.7 0.00 0.01 0.01 73 1013.3
20260502223052 63 0 0.0 1.7 0.00 0.01 0.01 74 1013.6
20260502221558 63 293 0.9 3.5 0.00 0.01 0.01 75 1013.8
20260502220046 63 331 0.0 3.5 0.00 0.01 0.01 73 1013.9
20260502214545 63 302 1.7 6.1 0.00 0.01 0.01 73 1014.0
20260502213053 63 302 1.7 7.0 0.00 0.01 0.01 73 1014.1
20260502211547 62 339 2.6 9.6 0.00 0.01 0.01 71 1014.5
20260502210046 62 88 0.9 7.8 0.00 0.01 0.01 72 1014.3
20260502204551 63 337 2.6 4.3 0.00 0.01 0.01 73 1014.6
20260502203056 61 300 0.9 5.2 0.00 0.01 0.01 75 1014.8
20260502201550 60 61 1.7 5.2 0.00 0.01 0.01 74 1015.3
20260502200046 60 329 0.9 7.0 0.00 0.01 0.01 76 1015.5
20260502194546 60 271 0.9 5.2 0.00 0.01 0.01 77 1015.6
20260502193049 58 317 0.9 7.0 0.00 0.01 0.01 77 1015.7
20260502191542 58 265 2.6 6.1 0.00 0.01 0.01 77 1015.7
20260502190049 57 343 1.7 8.7 0.00 0.01 0.01 77 1016.1
20260502184543 56 0 2.6 6.1 0.00 0.01 0.01 79 1016.2
20260502183047 55 313 0.0 3.5 0.00 0.01 0.01 84 1016.4